Flag for U.S.A. Weather past 2 weeks in Monticello, Kentucky, U.S.A.

Now
32 °F

Clear.


Feels Like: 26 °F
Forecast: 18 / 43 °F
Wind: 6 mph from North

Location: London-Corbin Airport-Magee Field

Current Time: Jan 30, 2015 at 7:51:31 PM

Latest Report: Jan 30, 2015 at 6:53 PM


Visibility: 10 mi

Pressure: 30.44 "Hg

Humidity: 43%

Dew point: 12 °F

Location of MonticelloLocation

Historic Weather in Monticello — Graph

°F

Monticello temperature yesterday

Maximum temperature yesterday: 60 °F (at 3:53 PM)
Minimum temperature yesterday: 28 °F (at 12:53 AM)
Average temperature yesterday: 43 °F

Past Weeks' High & Low Weather Summary

 TemperatureHumidityPressure
High62 °F (Jan 20, 2:53 PM)88% (Jan 24, 1:53 AM)30.41 "Hg (Jan 24, 1:53 AM)
Low18 °F (Jan 28, 7:53 AM)24% (Jan 19, 3:53 PM)29.64 "Hg (Jan 26, 12:53 AM)
Average38 °F63%30.06 "Hg
* Reported Jan 15 5:53 PM — Jan 30 5:53 PM, Monticello, Weather by CustomWeather, © 2014

Note: Actual official high and low records may vary slightly from our data, if they occured in-between our weather recording intervals... More about our weather records

Advertising

Monticello weather history for previous 24 hours

 ConditionsComfort  
Time TempWeatherWind HumidityBarometerVisibility
5:53 PM
Jan 30
35 °FSunny.7 mph40%30.41 "Hg10 mi
4:53 PM37 °FSunny.8 mph39%30.40 "Hg10 mi
3:53 PM38 °FSunny.9 mph39%30.39 "Hg10 mi
2:53 PM39 °FPassing clouds.12 mph41%30.38 "Hg10 mi
1:53 PM38 °FScattered clouds.14 mph43%30.39 "Hg10 mi
12:53 PM37 °FScattered clouds.8 mph52%30.41 "Hg10 mi
11:53 AM37 °FMostly cloudy.8 mph48%30.40 "Hg10 mi
10:53 AM36 °FPartly sunny.13 mph44%30.40 "Hg10 mi
9:53 AM37 °FPartly sunny.12 mph46%30.38 "Hg10 mi
8:53 AM33 °FOvercast.12 mph63%30.36 "Hg10 mi
7:53 AM33 °FOvercast.7 mph72%30.34 "Hg10 mi
6:53 AM33 °FLight rain. Mostly cloudy.9 mph75%30.32 "Hg8 mi
5:53 AM33 °FOvercast.8 mph72%30.29 "Hg10 mi
4:53 AM34 °FOvercast.8 mph67%30.28 "Hg10 mi
3:53 AM34 °FOvercast.12 mph67%30.25 "Hg10 mi
2:53 AM34 °FOvercast.10 mph73%30.25 "Hg10 mi
1:53 AM35 °FMostly cloudy.9 mph72%30.24 "Hg10 mi
12:53 AM35 °FOvercast.9 mph72%30.22 "Hg10 mi
11:59 PM
Jan 29
35 °FMostly cloudy.13 mph75%30.21 "Hg10 mi
10:53 PM38 °FOvercast.13 mph70%30.20 "Hg9 mi
9:53 PM39 °FMostly cloudy.12 mph65%30.18 "Hg10 mi
8:53 PM39 °FOvercast.14 mph70%30.16 "Hg10 mi
7:53 PM42 °FOvercast.18 mph65%30.12 "Hg10 mi
Weather by CustomWeather, © 2014

See weather overviewHow to use our weather pages